When you browse on this site, cookies collect data to enhance your experience and personalize the content and advertising you see.
Visit our Privacy Policy to learn more. By continuing to use the site, you agree to this use of cookies and data.
  • In Germany
  • List of Countries
  • For 7 days
  • Water Temperature
  • Weather Map
  • Weather Widgets
  • user-avatar
    Login

    Hourly Weather Miase

    Today, 27 May, Wednesday

    Time Temperature Precipitation Wind Pressure Humidity
    00:00 +9°C° 0 mm 3 mps 762 mmHg 93%
    01:00 +9°C° 0 mm 3 mps 762 mmHg 94%
    02:00 +8°C° 0 mm 3 mps 762 mmHg 94%
    03:00 +8°C° 0 mm 3 mps 762 mmHg 94%
    04:00 +8°C° 0 mm 3 mps 762 mmHg 94%
    05:00 +9°C° 0 mm 3 mps 762 mmHg 88%
    06:00 +11°C° 0 mm 3 mps 762 mmHg 83%
    07:00 +13°C° 0 mm 3 mps 763 mmHg 76%
    08:00 +14°C° 0 mm 4 mps 762 mmHg 70%
    09:00 +17°C° 0 mm 4 mps 762 mmHg 64%
    10:00 +18°C° 0 mm 4 mps 762 mmHg 58%
    11:00 +19°C° 0.1 mm 5 mps 761 mmHg 56%
    12:00 +19°C° 0.1 mm 5 mps 761 mmHg 54%
    13:00 +20°C° 0.1 mm 5 mps 761 mmHg 52%
    14:00 +20°C° 0 mm 5 mps 761 mmHg 53%
    15:00 +19°C° 0 mm 5 mps 760 mmHg 55%
    16:00 +19°C° 0 mm 5 mps 760 mmHg 56%
    17:00 +18°C° 0 mm 4 mps 760 mmHg 62%
    18:00 +16°C° 0 mm 3 mps 760 mmHg 67%
    19:00 +14°C° 0 mm 3 mps 760 mmHg 72%
    20:00 +14°C° 0 mm 2 mps 760 mmHg 77%
    21:00 +13°C° 0 mm 2 mps 760 mmHg 81%
    22:00 +10°C° 0 mm 2 mps 760 mmHg 86%
    23:00 +10°C° 0 mm 2 mps 760 mmHg 88%

    Tomorrow, 28 May, Thursday

    Time Temperature Precipitation Wind Pressure Humidity
    00:00 +9°C° 0 mm 2 mps 760 mmHg 90%
    01:00 +10°C° 0 mm 1 mps 759 mmHg 92%
    02:00 +10°C° 0 mm 1 mps 759 mmHg 91%
    03:00 +10°C° 0 mm 1 mps 759 mmHg 91%
    04:00 +9°C° 0 mm 1 mps 759 mmHg 91%
    05:00 +11°C° 0 mm 1 mps 758 mmHg 84%
    06:00 +13°C° 0 mm 1 mps 758 mmHg 77%
    07:00 +14°C° 0 mm 1 mps 758 mmHg 71%
    08:00 +15°C° 0.1 mm 2 mps 758 mmHg 67%
    09:00 +17°C° 0.1 mm 2 mps 758 mmHg 63%
    10:00 +18°C° 0.1 mm 2 mps 758 mmHg 59%
    11:00 +18°C° 0.1 mm 3 mps 758 mmHg 58%
    12:00 +19°C° 0.1 mm 3 mps 757 mmHg 57%
    13:00 +19°C° 0.1 mm 4 mps 757 mmHg 57%
    14:00 +19°C° 0.2 mm 4 mps 757 mmHg 60%
    15:00 +18°C° 0.2 mm 4 mps 756 mmHg 63%
    16:00 +18°C° 0.2 mm 4 mps 756 mmHg 66%
    17:00 +17°C° 0.1 mm 4 mps 756 mmHg 71%
    18:00 +16°C° 0.1 mm 3 mps 756 mmHg 76%
    19:00 +14°C° 0.1 mm 3 mps 756 mmHg 81%
    20:00 +13°C° 0 mm 3 mps 756 mmHg 84%
    21:00 +12°C° 0 mm 4 mps 756 mmHg 88%
    22:00 +11°C° 0 mm 4 mps 756 mmHg 92%
    23:00 +11°C° 0 mm 4 mps 756 mmHg 92%

    Day after tomorrow, 29 May, Friday

    Time Temperature Precipitation Wind Pressure Humidity
    00:00 +10°C° 0 mm 4 mps 756 mmHg 93%
    01:00 +9°C° 0 mm 5 mps 756 mmHg 93%
    02:00 +8°C° 0 mm 5 mps 756 mmHg 91%
    03:00 +7°C° 0 mm 5 mps 756 mmHg 88%
    04:00 +7°C° 0 mm 5 mps 756 mmHg 86%
    05:00 +8°C° 0 mm 5 mps 756 mmHg 82%
    06:00 +9°C° 0 mm 6 mps 756 mmHg 79%
    07:00 +9°C° 0 mm 6 mps 756 mmHg 75%
    08:00 +11°C° 0 mm 6 mps 756 mmHg 70%
    09:00 +14°C° 0 mm 7 mps 756 mmHg 65%
    10:00 +15°C° 0 mm 7 mps 756 mmHg 60%
    11:00 +16°C° 0 mm 7 mps 755 mmHg 58%
    12:00 +16°C° 0 mm 7 mps 755 mmHg 56%
    13:00 +17°C° 0 mm 7 mps 755 mmHg 54%
    14:00 +16°C° 0.1 mm 7 mps 755 mmHg 57%
    15:00 +16°C° 0.1 mm 7 mps 755 mmHg 59%
    16:00 +16°C° 0.1 mm 7 mps 755 mmHg 61%
    17:00 +15°C° 0.1 mm 6 mps 754 mmHg 65%
    18:00 +14°C° 0.1 mm 5 mps 754 mmHg 70%
    19:00 +13°C° 0.1 mm 5 mps 754 mmHg 74%
    20:00 +12°C° 0.1 mm 5 mps 754 mmHg 74%
    21:00 +12°C° 0.1 mm 5 mps 754 mmHg 75%
    22:00 +10°C° 0.1 mm 5 mps 754 mmHg 75%
    23:00 +10°C° 0 mm 6 mps 753 mmHg 75%

    30 May, Saturday

    Time Temperature Precipitation Wind Pressure Humidity
    00:00 +9°C° 0 mm 6 mps 753 mmHg 74%
    01:00 +9°C° 0 mm 6 mps 752 mmHg 73%
    02:00 +8°C° 0.6 mm 6 mps 752 mmHg 79%
    03:00 +8°C° 0.6 mm 6 mps 752 mmHg 84%
    04:00 +7°C° 0.6 mm 6 mps 752 mmHg 89%
    05:00 +7°C° 1.2 mm 6 mps 751 mmHg 90%
    06:00 +7°C° 1.2 mm 6 mps 751 mmHg 91%
    07:00 +7°C° 1.2 mm 6 mps 751 mmHg 92%
    08:00 +7°C° 0.7 mm 6 mps 751 mmHg 93%
    09:00 +8°C° 0.7 mm 6 mps 751 mmHg 93%
    10:00 +8°C° 0.7 mm 6 mps 751 mmHg 93%
    11:00 +9°C° 0.2 mm 6 mps 751 mmHg 92%
    12:00 +9°C° 0.2 mm 6 mps 751 mmHg 91%
    13:00 +10°C° 0.2 mm 5 mps 751 mmHg 89%
    14:00 +12°C° 0 mm 5 mps 750 mmHg 89%
    15:00 +12°C° 0 mm 5 mps 750 mmHg 88%
    16:00 +13°C° 0 mm 4 mps 750 mmHg 87%
    17:00 +13°C° 0 mm 4 mps 750 mmHg 88%
    18:00 +13°C° 0 mm 4 mps 750 mmHg 89%
    19:00 +13°C° 0 mm 4 mps 749 mmHg 91%
    20:00 +13°C° 0.5 mm 5 mps 749 mmHg 93%
    21:00 +13°C° 0.5 mm 5 mps 749 mmHg 94%
    22:00 +13°C° 0.5 mm 5 mps 749 mmHg 96%
    23:00 +13°C° 2.4 mm 5 mps 748 mmHg 96%

    31 May, Sunday

    Time Temperature Precipitation Wind Pressure Humidity
    00:00 +13°C° 2.4 mm 6 mps 748 mmHg 96%
    01:00 +13°C° 2.4 mm 6 mps 748 mmHg 96%
    02:00 +13°C° 2.4 mm 6 mps 747 mmHg 96%
    03:00 +13°C° 2.4 mm 6 mps 747 mmHg 95%
    04:00 +13°C° 2.4 mm 6 mps 747 mmHg 95%
    05:00 +12°C° 0.6 mm 7 mps 747 mmHg 93%
    06:00 +14°C° 0.6 mm 7 mps 747 mmHg 92%
    07:00 +14°C° 0.6 mm 7 mps 747 mmHg 90%
    08:00 +15°C° 0 mm 8 mps 747 mmHg 86%
    09:00 +16°C° 0 mm 8 mps 748 mmHg 82%
    10:00 +18°C° 0 mm 9 mps 748 mmHg 78%
    11:00 +18°C° 0 mm 8 mps 748 mmHg 77%
    12:00 +18°C° 0 mm 8 mps 748 mmHg 76%
    13:00 +18°C° 0 mm 8 mps 749 mmHg 76%
    14:00 +18°C° 0 mm 8 mps 749 mmHg 77%
    15:00 +18°C° 0 mm 7 mps 750 mmHg 78%
    16:00 +19°C° 0 mm 6 mps 750 mmHg 79%
    17:00 +17°C° 0 mm 6 mps 750 mmHg 80%
    18:00 +17°C° 0 mm 6 mps 751 mmHg 80%
    19:00 +17°C° 0 mm 5 mps 751 mmHg 81%
    20:00 +16°C° 0 mm 5 mps 752 mmHg 81%
    21:00 +16°C° 0 mm 5 mps 752 mmHg 82%
    22:00 +16°C° 0 mm 5 mps 753 mmHg 82%
    23:00 +15°C° 0 mm 5 mps 753 mmHg 81%

    1 June, Monday

    Time Temperature Precipitation Wind Pressure Humidity
    00:00 +15°C° 0 mm 5 mps 753 mmHg 80%
    01:00 +15°C° 0 mm 4 mps 753 mmHg 79%
    02:00 +14°C° 0 mm 5 mps 754 mmHg 77%
    03:00 +14°C° 0 mm 5 mps 754 mmHg 76%
    04:00 +13°C° 0 mm 5 mps 754 mmHg 75%
    05:00 +13°C° 0 mm 5 mps 754 mmHg 75%
    06:00 +14°C° 0 mm 5 mps 755 mmHg 75%
    07:00 +14°C° 0 mm 5 mps 755 mmHg 75%
    08:00 +16°C° 0 mm 5 mps 756 mmHg 71%
    09:00 +17°C° 0 mm 6 mps 756 mmHg 67%
    10:00 +20°C° 0 mm 6 mps 756 mmHg 62%
    11:00 +20°C° 0 mm 6 mps 756 mmHg 60%
    12:00 +20°C° 0 mm 6 mps 756 mmHg 57%
    13:00 +21°C° 0 mm 6 mps 756 mmHg 54%
    14:00 +20°C° 0 mm 6 mps 756 mmHg 55%
    15:00 +20°C° 0 mm 5 mps 756 mmHg 56%
    16:00 +20°C° 0 mm 5 mps 756 mmHg 57%
    17:00 +17°C° 0 mm 5 mps 756 mmHg 63%
    18:00 +17°C° 0 mm 4 mps 756 mmHg 69%
    19:00 +16°C° 0 mm 3 mps 756 mmHg 74%
    20:00 +14°C° 0 mm 3 mps 757 mmHg 77%
    21:00 +13°C° 0 mm 3 mps 757 mmHg 80%
    22:00 +12°C° 0 mm 3 mps 757 mmHg 84%
    23:00 +11°C° 0 mm 3 mps 757 mmHg 84%
    Show more